Flag for Japan Weather past 2 weeks in Sagamihara, Japan

Now
37 °F

Clear.


Feels Like: 27 °F
Forecast: 30 / 47 °F
Wind: 18 mph from Northwest

Location: Yokota Ab

Current Time: Feb 1, 2015 at 12:01:20 AM

Latest Report: Jan 31, 2015 at 10:58 PM


Visibility: 10 mi

Pressure: 30.06 "Hg

Humidity: 38%

Dew point: 13 °F

Location of SagamiharaLocation

Historic Weather in Sagamihara — Graph

°F

Sagamihara temperature yesterday

Maximum temperature yesterday: 49 °F (at 12:58 PM)
Minimum temperature yesterday: 29 °F (at 5:58 AM)
Average temperature yesterday: 37 °F

Past Weeks' High & Low Weather Summary

 TemperatureHumidityPressure
High61 °F (Jan 27, 1:58 PM)100% (Jan 21, 5:00 PM)30.51 "Hg (Jan 21, 5:00 PM)
Low24 °F (Jan 29, 12:58 AM)21% (Jan 28, 1:58 PM)29.59 "Hg (Jan 23, 1:58 AM)
Average39 °F68%30.08 "Hg
* Reported Jan 16 10:58 PM — Jan 31 10:58 PM, Sagamihara, Weather by CustomWeather, © 2014

Note: Actual official high and low records may vary slightly from our data, if they occured in-between our weather recording intervals... More about our weather records

Advertising

Sagamihara weather history for previous 24 hours

 ConditionsComfort  
Time TempWeatherWind HumidityBarometerVisibility
10:58 PM
Jan 31
37 °FClear.18 mph38%30.06 "Hg10 mi
9:58 PM35 °FClear.9 mph50%30.08 "Hg10 mi
8:58 PM31 °FClear.7 mph65%30.09 "Hg10 mi
7:58 PM33 °FClear.10 mph61%30.08 "Hg10 mi
6:58 PM34 °FClear.14 mph59%30.06 "Hg10 mi
5:58 PM39 °FClear.16 mph36%30.01 "Hg10 mi
4:58 PM43 °FSunny.17 mph27%29.98 "Hg10 mi
3:58 PM46 °FSunny.20 mph24%29.95 "Hg10 mi
2:58 PM47 °FSunny.21 mph25%29.93 "Hg10 mi
1:58 PM49 °FSunny.24 mph24%29.90 "Hg10 mi
12:58 PM49 °FSunny.25 mph23%29.89 "Hg10 mi
11:58 AM48 °FSunny.24 mph26%29.91 "Hg10 mi
10:58 AM46 °FSunny.21 mph45%29.93 "Hg10 mi
9:58 AM43 °FPartly sunny.18 mph56%29.93 "Hg10 mi
8:58 AM42 °FPartly sunny.15 mph72%29.92 "Hg10 mi
8:04 AM36 °FOvercast.5 mph100%29.88 "Hg10 mi
7:58 AM35 °FLight rain. Overcast.1 mph97%29.91 "Hg10 mi
6:58 AM32 °FSunny.12 mph99%29.89 "Hg10 mi
5:58 AM29 °FClear.3 mph99%29.85 "Hg10 mi
5:00 AM32 °FClear.2 mph100%29.80 "Hg8 mi
4:58 AM30 °FClear.1 mph99%29.83 "Hg10 mi
3:58 AM32 °FClear.2 mph98%29.83 "Hg10 mi
3:04 AM30 °FIce fog.No wind100%29.79 "Hg6 mi
2:58 AM32 °FClear.3 mph99%29.81 "Hg8 mi
2:02 AM32 °FClear.2 mph100%29.78 "Hg9 mi
1:58 AM33 °FClear.2 mph100%29.81 "Hg10 mi
12:58 AM34 °FFog.No wind99%29.80 "Hg5 mi
Weather by CustomWeather, © 2014

See weather overviewHow to use our weather pages